Daviess Cnty AP, Washington,, IN

6:52 AM EDT on September 22, 2019 (GMT -0400)
Daviess County

Weather History for KDCY - May, 2019

Change the Weather History Date:

Friday, May 17, 2019

  Actual Average (WUND) Record (WUND)
Temperature  
Mean Temperature 79 °F -  
Max Temperature 89 °F - - (-1)
Min Temperature 69 °F - - (-1)
Cooling Degree Days 14    
Growing Degree Days 29 (Base 50)    
Moisture  
Dew Point 61 °F    
Average Humidity 58    
Maximum Humidity 82    
Minimum Humidity 31    
Precipitation  
Precipitation 0.00 in - - ()
Sea Level Pressure  
Sea Level Pressure 29.86 in    
Wind  
Wind Speed 10 mph (WSW)    
Max Wind Speed 15 mph    
Max Gust Speed 23 mph    
Visibility 10 miles    
Events      
Averages and records for this station are not official NWS values.
T = Trace of Precipitation, MM = Missing Value Source: NWS Daily Summary

Daily Weather History Graph

Daily Weather History Graph

Search for Another Location

Airport or City:

Astronomy

May. 17, 2019 Rise Set
Actual Time 6:34 AM EDT 8:55 PM EDT
Civil Twilight 6:04 AM EDT 9:25 PM EDT
Nautical Twilight 5:27 AM EDT 10:02 PM EDT
Astronomical Twilight 4:47 AM EDT 10:43 PM EDT
Moon 7:44 PM EDT (5/17) 6:04 AM EDT (5/17)
Length of Visible Light 15h 20m
Length of Day
14h 20m
Waxing Gibbous, 98% of the Moon is Illuminated
May 17
Waxing Gibbous
May 18
Full
May 26
Last Quarter
Jun 3
New
Jun 10
First Quarter

Hourly Weather History & Observations

Time (EDT) Temp. Heat Index Dew Point Humidity Pressure Visibility Wind Dir Wind Speed Gust Speed Precip Events Conditions
12:15 AM 74.3 °F - 64.9 °F 72% 29.77 in 10.0 mi SSW 12.7 mph - N/A   Clear
12:35 AM 74.7 °F - 64.6 °F 71% 29.77 in 10.0 mi SSW 12.7 mph 19.6 mph N/A   Clear
12:55 AM 75.0 °F - 64.4 °F 69% 29.78 in 10.0 mi SSW 12.7 mph - N/A   Clear
1:15 AM 74.7 °F - 63.9 °F 69% 29.78 in 10.0 mi SW 11.5 mph - N/A   Clear
1:35 AM 75.0 °F - 63.5 °F 67% 29.79 in 10.0 mi SW 11.5 mph 19.6 mph N/A   Clear
1:55 AM 74.3 °F - 63.7 °F 69% 29.79 in 10.0 mi SW 11.5 mph 17.3 mph N/A   Clear
2:15 AM 73.8 °F - 63.5 °F 70% 29.79 in 10.0 mi SW 12.7 mph - N/A   Clear
2:35 AM 73.4 °F - 63.5 °F 71% 29.80 in 10.0 mi SW 9.2 mph - N/A   Clear
2:55 AM 72.5 °F - 63.5 °F 73% 29.81 in 10.0 mi WSW 6.9 mph - N/A   Clear
3:15 AM 72.5 °F - 63.1 °F 72% 29.81 in 10.0 mi SW 6.9 mph - N/A   Clear
3:35 AM 71.8 °F - 63.0 °F 74% 29.80 in 10.0 mi SW 8.1 mph - N/A   Clear
3:55 AM 71.6 °F - 63.0 °F 74% 29.81 in 10.0 mi WSW 6.9 mph - N/A   Clear
4:15 AM 71.6 °F - 63.0 °F 74% 29.82 in 10.0 mi WSW 6.9 mph - N/A   Clear
4:35 AM 71.8 °F - 63.0 °F 74% 29.83 in 10.0 mi WSW 8.1 mph - N/A   Clear
4:55 AM 72.0 °F - 63.0 °F 73% 29.84 in 10.0 mi WSW 6.9 mph - N/A   Clear
5:15 AM 71.6 °F - 63.0 °F 74% 29.85 in 10.0 mi West 6.9 mph - N/A   Clear
5:35 AM 71.8 °F - 63.0 °F 74% 29.85 in 10.0 mi West 8.1 mph - N/A   Clear
5:55 AM 71.4 °F - 63.0 °F 75% 29.85 in 10.0 mi WSW 8.1 mph - N/A   Clear
6:15 AM 70.7 °F - 63.0 °F 76% 29.86 in 10.0 mi West 6.9 mph - N/A   Clear
6:35 AM 69.8 °F - 63.1 °F 79% 29.86 in 10.0 mi WSW 5.8 mph - N/A   Clear
6:55 AM 69.1 °F - 63.5 °F 82% 29.87 in 10.0 mi WSW 8.1 mph - N/A   Clear
7:15 AM 69.8 °F - 63.5 °F 80% 29.88 in 10.0 mi WSW 8.1 mph - N/A   Clear
7:35 AM 70.0 °F - 63.5 °F 80% 29.88 in 10.0 mi WSW 6.9 mph - N/A   Clear
7:55 AM 71.1 °F - 63.7 °F 77% 29.87 in 10.0 mi WSW 6.9 mph - N/A   Clear
8:15 AM 72.9 °F - 63.7 °F 73% 29.87 in 10.0 mi WSW 9.2 mph - N/A   Clear
8:35 AM 73.2 °F - 63.9 °F 72% 29.87 in 10.0 mi WSW 9.2 mph - N/A   Clear
8:55 AM 74.5 °F - 63.9 °F 69% 29.87 in 10.0 mi WSW 9.2 mph - N/A   Clear
9:10 AM 75.0 °F - 63.9 °F 68% 29.87 in 10.0 mi WSW 10.4 mph - N/A   Clear
9:35 AM 75.7 °F - 64.0 °F 67% 29.88 in 10.0 mi WSW 9.2 mph - N/A   Clear
9:55 AM 77.0 °F - 63.5 °F 63% 29.88 in 10.0 mi WSW 10.4 mph - N/A   Clear
10:15 AM 78.6 °F - 64.0 °F 61% 29.88 in 10.0 mi SW 11.5 mph - N/A   Clear
10:35 AM 79.9 °F - 64.2 °F 59% 29.88 in 10.0 mi SW 10.4 mph - N/A   Clear
10:55 AM 81.1 °F 82.5 °F 63.3 °F 55% 29.89 in 10.0 mi SW 13.8 mph - N/A   Clear
11:15 AM 82.2 °F 83.7 °F 64.0 °F 54% 29.88 in 10.0 mi WSW 11.5 mph 19.6 mph N/A   Clear
11:35 AM 82.9 °F 84.2 °F 63.7 °F 52% 29.88 in 10.0 mi West 11.5 mph - N/A   Clear
11:55 AM 84.0 °F 85.4 °F 63.9 °F 51% 29.87 in 10.0 mi WSW 15.0 mph 20.7 mph N/A   Clear
12:15 PM 83.8 °F 84.9 °F 63.3 °F 50% 29.88 in 10.0 mi West 12.7 mph 23.0 mph N/A   Clear
12:35 PM 84.7 °F 86.1 °F 64.2 °F 50% 29.89 in 10.0 mi WNW 11.5 mph 19.6 mph N/A   Clear
12:55 PM 84.9 °F 85.9 °F 63.3 °F 48% 29.89 in 10.0 mi West 12.7 mph 19.6 mph N/A   Clear
1:15 PM 85.1 °F 86.1 °F 63.5 °F 48% 29.89 in 10.0 mi West 8.1 mph 16.1 mph N/A   Scattered Clouds
1:35 PM 84.4 °F 85.2 °F 62.8 °F 48% 29.89 in 10.0 mi West 10.4 mph 20.7 mph N/A   Mostly Cloudy
1:55 PM 85.6 °F 86.3 °F 62.4 °F 46% 29.90 in 10.0 mi West 12.7 mph 18.4 mph N/A   Mostly Cloudy
2:15 PM 86.0 °F 86.6 °F 62.2 °F 45% 29.89 in 10.0 mi WSW 10.4 mph 19.6 mph N/A   Scattered Clouds
2:35 PM 85.1 °F 85.7 °F 61.9 °F 46% 29.89 in 10.0 mi West 10.4 mph - N/A   Mostly Cloudy
2:55 PM 86.4 °F 86.8 °F 62.1 °F 44% 29.89 in 10.0 mi West 8.1 mph - N/A   Mostly Cloudy
3:15 PM 86.9 °F 87.0 °F 61.2 °F 42% 29.89 in 10.0 mi West 9.2 mph - N/A   Mostly Cloudy
3:35 PM 85.8 °F 85.9 °F 61.2 °F 43% 29.88 in 10.0 mi West 5.8 mph 16.1 mph N/A   Mostly Cloudy
3:55 PM 86.5 °F 86.8 °F 61.3 °F 43% 29.88 in 10.0 mi West 11.5 mph - N/A   Scattered Clouds
4:15 PM 86.0 °F 86.1 °F 61.0 °F 43% 29.87 in 10.0 mi SW 9.2 mph - N/A   Clear
4:35 PM 87.6 °F 87.4 °F 60.6 °F 40% 29.87 in 10.0 mi WSW 9.2 mph - N/A   Clear
4:55 PM 88.0 °F 87.6 °F 59.9 °F 39% 29.86 in 10.0 mi SW 10.4 mph - N/A   Clear
5:15 PM 87.4 °F 86.7 °F 59.2 °F 38% 29.85 in 10.0 mi WSW 10.4 mph - N/A   Clear
5:35 PM 89.1 °F 88.0 °F 58.5 °F 35% 29.86 in 10.0 mi WSW 11.5 mph - N/A   Clear
5:55 PM 88.2 °F 86.5 °F 55.4 °F 33% 29.85 in 10.0 mi WSW 11.5 mph 19.6 mph N/A   Clear
6:15 PM 88.0 °F 86.1 °F 54.9 °F 32% 29.86 in 10.0 mi SW 11.5 mph - N/A   Clear
6:35 PM 87.4 °F 86.1 °F 56.5 °F 35% 29.85 in 10.0 mi WSW 11.5 mph - N/A   Clear
6:55 PM 86.0 °F - 52.3 °F 31% 29.85 in 10.0 mi WSW 13.8 mph 18.4 mph N/A   Clear
7:15 PM 85.3 °F - 52.3 °F 32% 29.85 in 10.0 mi WSW 9.2 mph - N/A   Clear
7:35 PM 84.6 °F 83.1 °F 54.3 °F 35% 29.86 in 10.0 mi WSW 9.2 mph - N/A   Clear
7:55 PM 83.3 °F 82.3 °F 55.2 °F 38% 29.86 in 10.0 mi WSW 6.9 mph - N/A   Clear
8:15 PM 82.6 °F 82.0 °F 55.8 °F 40% 29.86 in 10.0 mi WSW 8.1 mph - N/A   Clear
8:35 PM 80.6 °F 80.6 °F 56.3 °F 43% 29.87 in 10.0 mi SW 5.8 mph - N/A   Clear
8:55 PM 77.9 °F - 57.2 °F 49% 29.87 in 10.0 mi SSW 5.8 mph - N/A   Clear
9:15 PM 76.5 °F - 56.8 °F 51% 29.87 in 10.0 mi SSW 6.9 mph - N/A   Clear
9:35 PM 76.3 °F - 57.4 °F 52% 29.87 in 10.0 mi SSW 6.9 mph - N/A   Clear
9:55 PM 75.2 °F - 58.1 °F 55% 29.87 in 10.0 mi SSW 6.9 mph - N/A   Clear
10:15 PM 75.4 °F - 59.2 °F 57% 29.87 in 10.0 mi SSW 8.1 mph - N/A   Clear
10:35 PM 74.7 °F - 59.9 °F 60% 29.88 in 10.0 mi SSW 9.2 mph - N/A   Clear
10:55 PM 73.2 °F - 60.3 °F 64% 29.89 in 10.0 mi South 6.9 mph - N/A   Clear
11:15 PM 73.4 °F - 60.3 °F 63% 29.88 in 10.0 mi SSW 8.1 mph - N/A   Clear
11:35 PM 72.0 °F - 60.3 °F 67% 29.88 in 10.0 mi South 8.1 mph - N/A   Clear
11:55 PM 71.6 °F - 60.4 °F 68% 29.88 in 10.0 mi South 8.1 mph - N/A   Clear